Year,Month,Day,Hour,Minute,Value (Times are PST for temperature in C)
2014,10,16,10,32,12.10
2014,10,16,10,33,12.10
2014,10,16,10,34,12.10
2014,10,16,10,35,12.10
2014,10,16,10,36,12.10
2014,10,16,10,37,12.10
2014,10,16,10,38,12.10
2014,10,16,10,39,12.10
2014,10,16,10,40,12.10
2014,10,16,10,41,12.10
2014,10,16,10,42,12.10
2014,10,16,10,43,12.10
2014,10,16,10,44,12.10
2014,10,16,10,45,12.10
2014,10,16,10,46,12.10
2014,10,16,10,47,12.10
2014,10,16,10,48,12.10
2014,10,16,10,49,12.10
2014,10,16,10,50,12.20
2014,10,16,10,51,12.20
2014,10,16,10,52,12.20
2014,10,16,10,53,12.10
2014,10,16,10,54,12.20
2014,10,16,10,55,12.10
2014,10,16,10,56,12.10
2014,10,16,10,57,12.10
2014,10,16,10,58,12.10
2014,10,16,10,59,12.10
2014,10,16,11,00,12.10
2014,10,16,11,01,12.10
2014,10,16,11,02,12.10
2014,10,16,11,03,12.10
2014,10,16,11,04,12.10
2014,10,16,11,05,12.10
2014,10,16,11,06,12.10
2014,10,16,11,07,12.10
2014,10,16,11,08,12.10
2014,10,16,11,09,12.10
2014,10,16,11,10,12.10
2014,10,16,11,11,12.20
2014,10,16,11,12,12.20
2014,10,16,11,13,12.20
2014,10,16,11,14,12.20
2014,10,16,11,15,12.20
2014,10,16,11,16,12.20
2014,10,16,11,17,12.10
2014,10,16,11,18,12.10
2014,10,16,11,19,12.10
2014,10,16,11,20,12.10
2014,10,16,11,21,12.10
2014,10,16,11,22,12.10
2014,10,16,11,23,12.10
2014,10,16,11,24,12.10
2014,10,16,11,25,12.10
2014,10,16,11,26,12.10
2014,10,16,11,27,12.10
2014,10,16,11,28,12.10
2014,10,16,11,29,12.10
2014,10,16,11,30,12.00
2014,10,16,11,31,12.00
2014,10,16,11,32,12.00
2014,10,16,11,33,12.00
2014,10,16,11,34,12.00
2014,10,16,11,35,12.00
2014,10,16,11,36,12.00
2014,10,16,11,37,12.00
2014,10,16,11,38,12.00
2014,10,16,11,39,12.00
2014,10,16,11,40,12.00
2014,10,16,11,41,12.00
2014,10,16,11,42,12.00
2014,10,16,11,43,12.00
2014,10,16,11,44,12.00
2014,10,16,11,45,12.00
2014,10,16,11,46,12.00
2014,10,16,11,47,12.00
2014,10,16,11,48,12.00
2014,10,16,11,49,12.00
2014,10,16,11,50,12.00
2014,10,16,11,51,12.00
2014,10,16,11,52,12.00
2014,10,16,11,53,12.00
2014,10,16,11,54,12.00
2014,10,16,11,55,12.10
2014,10,16,11,56,12.10
2014,10,16,11,57,12.10
2014,10,16,11,58,12.10
2014,10,16,11,59,12.10
2014,10,16,12,00,12.10
2014,10,16,12,01,12.10
2014,10,16,12,02,12.10
2014,10,16,12,03,12.10
2014,10,16,12,04,12.10
2014,10,16,12,05,12.10
2014,10,16,12,06,12.10
2014,10,16,12,07,12.10
2014,10,16,12,08,12.10
2014,10,16,12,09,12.10
2014,10,16,12,10,12.10
2014,10,16,12,11,12.10
2014,10,16,12,12,12.10
2014,10,16,12,13,12.10
2014,10,16,12,14,12.10
2014,10,16,12,15,12.10
2014,10,16,12,16,12.10
2014,10,16,12,17,12.10
2014,10,16,12,18,12.10
2014,10,16,12,19,12.10
2014,10,16,12,20,12.10
2014,10,16,12,21,12.10
2014,10,16,12,22,12.10
2014,10,16,12,23,12.10
2014,10,16,12,24,12.20
2014,10,16,12,25,12.20
2014,10,16,12,26,12.20
2014,10,16,12,27,12.20
2014,10,16,12,28,12.20
2014,10,16,12,29,12.20
2014,10,16,12,30,12.20
2014,10,16,12,31,12.20
2014,10,16,12,32,12.20
2014,10,16,12,33,12.20
2014,10,16,12,34,12.20
2014,10,16,12,35,12.20
2014,10,16,12,36,12.20
2014,10,16,12,37,12.20
2014,10,16,12,38,12.20
2014,10,16,12,39,12.20
2014,10,16,12,40,12.20
2014,10,16,12,41,12.20
2014,10,16,12,42,12.20
2014,10,16,12,43,12.20
2014,10,16,12,44,12.20
2014,10,16,12,45,12.20
2014,10,16,12,46,12.20
2014,10,16,12,47,12.20
2014,10,16,12,48,12.20
2014,10,16,12,49,12.20
2014,10,16,12,50,12.20
2014,10,16,12,51,12.20
2014,10,16,12,52,12.20
2014,10,16,12,53,12.20
2014,10,16,12,54,12.20
2014,10,16,12,55,12.30
2014,10,16,12,56,12.30
2014,10,16,12,57,12.30
2014,10,16,12,58,12.30
2014,10,16,12,59,12.30
2014,10,16,13,00,12.40
2014,10,16,13,01,12.40
2014,10,16,13,02,12.40
2014,10,16,13,03,12.40
2014,10,16,13,04,12.50
2014,10,16,13,05,12.50
2014,10,16,13,06,12.60
2014,10,16,13,07,12.60
2014,10,16,13,08,12.60
2014,10,16,13,09,12.70
2014,10,16,13,10,12.70
2014,10,16,13,11,12.70
2014,10,16,13,12,12.70
2014,10,16,13,13,12.80
2014,10,16,13,14,12.80
2014,10,16,13,15,12.80
2014,10,16,13,16,12.80
2014,10,16,13,17,12.80
2014,10,16,13,18,12.80
2014,10,16,13,19,12.80
2014,10,16,13,20,12.80
2014,10,16,13,21,12.80
2014,10,16,13,22,12.90
2014,10,16,13,23,12.90
2014,10,16,13,24,12.90
2014,10,16,13,25,12.90
2014,10,16,13,26,12.90
2014,10,16,13,27,12.90
2014,10,16,13,28,12.90
2014,10,16,13,29,12.90
2014,10,16,13,30,12.90
2014,10,16,13,31,12.90
2014,10,16,13,32,12.90
2014,10,16,13,33,12.90
2014,10,16,13,34,12.90
2014,10,16,13,35,12.90
2014,10,16,13,36,12.90
2014,10,16,13,37,12.90
2014,10,16,13,38,12.90
2014,10,16,13,39,12.90
2014,10,16,13,40,12.90
2014,10,16,13,41,13.00
2014,10,16,13,42,13.00
2014,10,16,13,43,13.00
2014,10,16,13,44,13.10
2014,10,16,13,45,13.10
2014,10,16,13,46,13.10
2014,10,16,13,47,13.10
2014,10,16,13,48,13.10
2014,10,16,13,49,13.10
2014,10,16,13,50,13.10
2014,10,16,13,51,13.10
2014,10,16,13,52,13.10
2014,10,16,13,53,13.10
2014,10,16,13,54,13.10
2014,10,16,13,55,13.10
2014,10,16,13,56,13.10
2014,10,16,13,57,13.10
2014,10,16,13,58,13.20
2014,10,16,13,59,13.20
2014,10,16,14,00,13.20
2014,10,16,14,01,13.20
2014,10,16,14,02,13.20
2014,10,16,14,03,13.20
2014,10,16,14,04,13.20
2014,10,16,14,05,13.20
2014,10,16,14,06,13.20
2014,10,16,14,07,13.20
2014,10,16,14,08,13.20
2014,10,16,14,09,13.20
2014,10,16,14,10,13.20
2014,10,16,14,11,13.20
2014,10,16,14,12,13.20
2014,10,16,14,13,13.20
2014,10,16,14,14,13.20
2014,10,16,14,15,13.20
2014,10,16,14,16,13.20
2014,10,16,14,17,13.30
2014,10,16,14,18,13.30
2014,10,16,14,19,13.30
2014,10,16,14,20,13.30
2014,10,16,14,21,13.20
2014,10,16,14,22,13.20
2014,10,16,14,23,13.20
2014,10,16,14,24,13.20
2014,10,16,14,25,13.20
2014,10,16,14,26,13.20
2014,10,16,14,27,13.20
2014,10,16,14,28,13.20
2014,10,16,14,29,13.20
2014,10,16,14,30,13.20
2014,10,16,14,31,13.20
2014,10,16,14,32,13.20
2014,10,16,14,33,13.20
2014,10,16,14,34,13.20
2014,10,16,14,35,13.20
2014,10,16,14,36,13.20
2014,10,16,14,37,13.20
2014,10,16,14,38,13.20
2014,10,16,14,39,13.20
2014,10,16,14,40,13.10
2014,10,16,14,41,13.10
2014,10,16,14,42,13.10
2014,10,16,14,43,13.10
2014,10,16,14,44,13.10
2014,10,16,14,45,13.10
2014,10,16,14,46,13.10
2014,10,16,14,47,13.10
2014,10,16,14,48,13.10
2014,10,16,14,49,13.10
2014,10,16,14,50,13.10
2014,10,16,14,51,13.10
2014,10,16,14,52,13.10
2014,10,16,14,53,13.10
2014,10,16,14,54,13.10
2014,10,16,14,55,13.10
2014,10,16,14,56,13.10
2014,10,16,14,57,13.10
2014,10,16,14,58,13.10
2014,10,16,14,59,13.10
2014,10,16,15,00,13.10
2014,10,16,15,01,13.10
2014,10,16,15,02,13.10
2014,10,16,15,03,13.10
2014,10,16,15,04,13.10
2014,10,16,15,05,13.10
2014,10,16,15,06,13.10
2014,10,16,15,07,13.10
2014,10,16,15,08,13.10
2014,10,16,15,09,13.10
2014,10,16,15,10,13.10
2014,10,16,15,11,13.10
2014,10,16,15,12,13.10
2014,10,16,15,13,13.10
2014,10,16,15,14,13.10
2014,10,16,15,15,13.10
2014,10,16,15,16,13.10
2014,10,16,15,17,13.10
2014,10,16,15,18,13.00
2014,10,16,15,19,13.00
2014,10,16,15,20,13.00
2014,10,16,15,21,13.00
2014,10,16,15,22,13.00
2014,10,16,15,23,13.00
2014,10,16,15,24,13.00
2014,10,16,15,25,13.00
2014,10,16,15,26,13.00
2014,10,16,15,27,13.00
2014,10,16,15,28,13.00
2014,10,16,15,29,13.00
2014,10,16,15,30,13.00
2014,10,16,15,31,13.00
2014,10,16,15,32,13.00
2014,10,16,15,33,13.00
2014,10,16,15,34,13.00
2014,10,16,15,35,13.00
2014,10,16,15,36,13.00
2014,10,16,15,37,13.00
2014,10,16,15,38,13.00
2014,10,16,15,39,13.00
2014,10,16,15,40,13.00
2014,10,16,15,41,13.00
2014,10,16,15,42,13.00
2014,10,16,15,43,13.00
2014,10,16,15,44,13.00
2014,10,16,15,45,12.90
2014,10,16,15,46,12.90
2014,10,16,15,47,13.00
2014,10,16,15,48,12.90
2014,10,16,15,49,12.90
2014,10,16,15,50,12.90
2014,10,16,15,51,12.90
2014,10,16,15,52,12.90
2014,10,16,15,53,12.90
2014,10,16,15,54,12.90
2014,10,16,15,55,12.90
2014,10,16,15,56,12.90
2014,10,16,15,57,12.90
2014,10,16,15,58,12.90
2014,10,16,15,59,12.90
2014,10,16,16,00,12.90
2014,10,16,16,01,12.90
2014,10,16,16,02,12.90
2014,10,16,16,03,12.90
2014,10,16,16,04,12.90
2014,10,16,16,05,12.90
2014,10,16,16,06,12.80
2014,10,16,16,07,12.80
2014,10,16,16,08,12.80
2014,10,16,16,09,12.80
2014,10,16,16,10,12.80
2014,10,16,16,11,12.80
2014,10,16,16,12,12.80
2014,10,16,16,13,12.80
2014,10,16,16,14,12.80
2014,10,16,16,15,12.80
2014,10,16,16,16,12.80
2014,10,16,16,17,12.80
2014,10,16,16,18,12.80
2014,10,16,16,19,12.80
2014,10,16,16,20,12.80
2014,10,16,16,21,12.80
2014,10,16,16,22,12.80
2014,10,16,16,23,12.90
2014,10,16,16,24,12.90
2014,10,16,16,25,12.90
2014,10,16,16,26,12.90
2014,10,16,16,27,12.90
2014,10,16,16,28,12.90
2014,10,16,16,29,12.90
2014,10,16,16,30,12.90
2014,10,16,16,31,12.90
2014,10,16,16,32,12.90
2014,10,16,16,33,12.90
2014,10,16,16,34,12.90
2014,10,16,16,35,12.90
2014,10,16,16,36,12.90
2014,10,16,16,37,12.90
2014,10,16,16,38,12.90
2014,10,16,16,39,12.90
2014,10,16,16,40,12.90
2014,10,16,16,41,12.90
2014,10,16,16,42,12.90
2014,10,16,16,43,12.90
2014,10,16,16,44,12.90
2014,10,16,16,45,12.90
2014,10,16,16,46,12.90
2014,10,16,16,47,12.90
2014,10,16,16,48,13.00
2014,10,16,16,49,13.00
2014,10,16,16,50,13.00
2014,10,16,16,51,13.00
2014,10,16,16,52,13.00
2014,10,16,16,53,13.00
2014,10,16,16,54,13.00
2014,10,16,16,55,13.00
2014,10,16,16,56,13.00
2014,10,16,16,57,13.00
2014,10,16,16,58,13.00
2014,10,16,16,59,13.00
2014,10,16,17,00,12.90
2014,10,16,17,01,12.90
2014,10,16,17,02,12.90
2014,10,16,17,03,12.90
2014,10,16,17,04,12.90
2014,10,16,17,05,12.90
2014,10,16,17,06,12.90
2014,10,16,17,07,12.90
2014,10,16,17,08,12.90
2014,10,16,17,09,12.90
2014,10,16,17,10,12.90
2014,10,16,17,11,13.00
2014,10,16,17,12,13.00
2014,10,16,17,13,13.00
2014,10,16,17,14,13.00
2014,10,16,17,15,13.00
2014,10,16,17,16,13.00
2014,10,16,17,17,13.00
2014,10,16,17,18,13.10
2014,10,16,17,19,13.10
2014,10,16,17,20,13.10
2014,10,16,17,21,13.10
2014,10,16,17,22,13.10
2014,10,16,17,23,13.10
2014,10,16,17,24,13.10
2014,10,16,17,25,13.10
2014,10,16,17,26,13.10
2014,10,16,17,27,13.10
2014,10,16,17,28,13.00
2014,10,16,17,29,13.00
2014,10,16,17,30,13.00
2014,10,16,17,31,13.00
2014,10,16,17,32,13.00
2014,10,16,17,33,13.00
2014,10,16,17,34,13.00
2014,10,16,17,35,12.90
2014,10,16,17,36,12.90
2014,10,16,17,37,12.90
2014,10,16,17,38,12.90
2014,10,16,17,39,12.90
2014,10,16,17,40,12.90
2014,10,16,17,41,12.90
2014,10,16,17,42,12.90
2014,10,16,17,43,12.90
2014,10,16,17,44,12.90
2014,10,16,17,45,12.90
2014,10,16,17,46,12.90
2014,10,16,17,47,13.00
2014,10,16,17,48,13.00
2014,10,16,17,49,13.00
2014,10,16,17,50,13.00
2014,10,16,17,51,13.00
2014,10,16,17,52,13.00
2014,10,16,17,53,12.90
2014,10,16,17,54,12.90
2014,10,16,17,55,12.90
2014,10,16,17,56,12.90
2014,10,16,17,57,12.90
2014,10,16,17,58,12.90
2014,10,16,17,59,12.90
2014,10,16,18,00,12.90
2014,10,16,18,01,12.90
2014,10,16,18,02,12.90
2014,10,16,18,03,12.90
2014,10,16,18,04,12.80
2014,10,16,18,05,12.80
2014,10,16,18,06,12.80
2014,10,16,18,07,12.80
2014,10,16,18,08,12.80
2014,10,16,18,09,12.80
2014,10,16,18,10,12.80
2014,10,16,18,11,12.80
2014,10,16,18,12,12.80
2014,10,16,18,13,12.80
2014,10,16,18,14,12.80
2014,10,16,18,15,12.80
2014,10,16,18,16,12.70
2014,10,16,18,17,12.70
2014,10,16,18,18,12.70
2014,10,16,18,19,12.70
2014,10,16,18,20,12.70
2014,10,16,18,21,12.70
2014,10,16,18,22,12.70
2014,10,16,18,23,12.70
2014,10,16,18,24,12.70
2014,10,16,18,25,12.70
2014,10,16,18,26,12.70
2014,10,16,18,27,12.70
2014,10,16,18,28,12.70
2014,10,16,18,29,12.70
2014,10,16,18,30,12.70
2014,10,16,18,31,12.70
2014,10,16,18,32,12.70
2014,10,16,18,33,12.70
2014,10,16,18,34,12.70
2014,10,16,18,35,12.70
2014,10,16,18,36,12.70
2014,10,16,18,37,12.70
2014,10,16,18,38,12.70
2014,10,16,18,39,12.70
2014,10,16,18,40,12.70
2014,10,16,18,41,12.60
2014,10,16,18,42,12.60
2014,10,16,18,43,12.60
2014,10,16,18,44,12.60
2014,10,16,18,45,12.60
2014,10,16,18,46,12.60
2014,10,16,18,47,12.60
2014,10,16,18,48,12.60
2014,10,16,18,49,12.60
2014,10,16,18,50,12.60
2014,10,16,18,51,12.50
2014,10,16,18,52,12.50
2014,10,16,18,53,12.50
2014,10,16,18,54,12.50
2014,10,16,18,55,12.40
2014,10,16,18,56,12.40
2014,10,16,18,57,12.40
2014,10,16,18,58,12.40
2014,10,16,18,59,12.40
2014,10,16,19,00,12.40
2014,10,16,19,01,12.40
2014,10,16,19,02,12.40
2014,10,16,19,03,12.40
2014,10,16,19,04,12.40
2014,10,16,19,05,12.40
2014,10,16,19,06,12.40
2014,10,16,19,07,12.40
2014,10,16,19,08,12.40
2014,10,16,19,09,12.40
2014,10,16,19,10,12.40
2014,10,16,19,11,12.40
2014,10,16,19,12,12.40
2014,10,16,19,13,12.40
2014,10,16,19,14,12.40
2014,10,16,19,15,12.40
2014,10,16,19,16,12.40
2014,10,16,19,17,12.40
2014,10,16,19,18,12.40
2014,10,16,19,19,12.40
2014,10,16,19,20,12.40
2014,10,16,19,21,12.40
2014,10,16,19,22,12.50
2014,10,16,19,23,12.50
2014,10,16,19,24,12.50
2014,10,16,19,25,12.50
2014,10,16,19,26,12.60
2014,10,16,19,27,12.60
2014,10,16,19,28,12.60
2014,10,16,19,29,12.60
2014,10,16,19,30,12.60
2014,10,16,19,31,12.60
2014,10,16,19,32,12.70
2014,10,16,19,33,12.70
2014,10,16,19,34,12.70
2014,10,16,19,35,12.70
2014,10,16,19,36,12.70
2014,10,16,19,37,12.70
2014,10,16,19,38,12.70
2014,10,16,19,39,12.80
2014,10,16,19,40,12.80
2014,10,16,19,41,12.80
2014,10,16,19,42,12.80
2014,10,16,19,43,12.80
2014,10,16,19,44,12.80
2014,10,16,19,45,12.80
2014,10,16,19,46,12.80
2014,10,16,19,47,12.80
2014,10,16,19,48,12.80
2014,10,16,19,49,12.80
2014,10,16,19,50,12.80
2014,10,16,19,51,12.80
2014,10,16,19,52,12.80
2014,10,16,19,53,12.80
2014,10,16,19,54,12.80
2014,10,16,19,55,12.80
2014,10,16,19,56,12.80
2014,10,16,19,57,12.80
2014,10,16,19,58,12.80
2014,10,16,19,59,12.80
2014,10,16,20,00,12.80
2014,10,16,20,01,12.80
2014,10,16,20,02,12.80
2014,10,16,20,03,12.80
2014,10,16,20,04,12.80
2014,10,16,20,05,12.80
2014,10,16,20,06,12.80
2014,10,16,20,07,12.80
2014,10,16,20,08,12.80
2014,10,16,20,09,12.80
2014,10,16,20,10,12.80
2014,10,16,20,11,12.80
2014,10,16,20,12,12.80
2014,10,16,20,13,12.80
2014,10,16,20,14,12.70
2014,10,16,20,15,12.70
2014,10,16,20,16,12.70
2014,10,16,20,17,12.70
2014,10,16,20,18,12.70
2014,10,16,20,19,12.70
2014,10,16,20,20,12.70
2014,10,16,20,21,12.70
2014,10,16,20,22,12.70
2014,10,16,20,23,12.70
2014,10,16,20,24,12.70
2014,10,16,20,25,12.70
2014,10,16,20,26,12.70
2014,10,16,20,27,12.70
2014,10,16,20,28,12.70
2014,10,16,20,29,12.70
2014,10,16,20,30,12.70
2014,10,16,20,31,12.70
2014,10,16,20,32,12.70
2014,10,16,20,33,12.70
2014,10,16,20,34,12.70
2014,10,16,20,35,12.70
2014,10,16,20,36,12.70
2014,10,16,20,37,12.70
2014,10,16,20,38,12.70
2014,10,16,20,39,12.70
2014,10,16,20,40,12.70
2014,10,16,20,41,12.70
2014,10,16,20,42,12.70
2014,10,16,20,43,12.70
2014,10,16,20,44,12.70
2014,10,16,20,45,12.70
2014,10,16,20,46,12.70
2014,10,16,20,47,12.70
2014,10,16,20,48,12.70
2014,10,16,20,49,12.70
2014,10,16,20,50,12.70
2014,10,16,20,51,12.70
2014,10,16,20,52,12.70
2014,10,16,20,53,12.70
2014,10,16,20,54,12.70
2014,10,16,20,55,12.70
2014,10,16,20,56,12.70
2014,10,16,20,57,12.70
2014,10,16,20,58,12.70
2014,10,16,20,59,12.60
2014,10,16,21,00,12.60
2014,10,16,21,01,12.60
2014,10,16,21,02,12.60
2014,10,16,21,03,12.60
2014,10,16,21,04,12.60
2014,10,16,21,05,12.60
2014,10,16,21,06,12.60
2014,10,16,21,07,12.60
2014,10,16,21,08,12.50
2014,10,16,21,09,12.50
2014,10,16,21,10,12.50
2014,10,16,21,11,12.50
2014,10,16,21,12,12.50
2014,10,16,21,13,12.40
2014,10,16,21,14,12.40
2014,10,16,21,15,12.40
2014,10,16,21,16,12.40
2014,10,16,21,17,12.40
2014,10,16,21,18,12.40
2014,10,16,21,19,12.30
2014,10,16,21,20,12.30
2014,10,16,21,21,12.30
2014,10,16,21,22,12.30
2014,10,16,21,23,12.30
2014,10,16,21,24,12.20
2014,10,16,21,25,12.20
2014,10,16,21,26,12.20
2014,10,16,21,27,12.20
2014,10,16,21,28,12.20
2014,10,16,21,29,12.20
2014,10,16,21,30,12.10
2014,10,16,21,31,12.10
2014,10,16,21,32,12.10
2014,10,16,21,33,12.00
2014,10,16,21,34,11.90
2014,10,16,21,35,11.90
2014,10,16,21,36,11.90
2014,10,16,21,37,11.80
2014,10,16,21,38,11.80
2014,10,16,21,39,11.80
2014,10,16,21,40,11.80
2014,10,16,21,41,11.80
2014,10,16,21,42,11.80
2014,10,16,21,43,11.80
2014,10,16,21,44,11.80
2014,10,16,21,45,11.80
2014,10,16,21,46,11.80
2014,10,16,21,47,11.80
2014,10,16,21,48,11.80
2014,10,16,21,49,11.80
2014,10,16,21,50,11.80
2014,10,16,21,51,11.80
2014,10,16,21,52,11.80
2014,10,16,21,53,11.80
2014,10,16,21,54,11.80
2014,10,16,21,55,11.80
2014,10,16,21,56,11.80
2014,10,16,21,57,11.80
2014,10,16,21,58,11.80
2014,10,16,21,59,11.80
2014,10,16,22,00,11.80
2014,10,16,22,01,11.80
2014,10,16,22,02,11.80
2014,10,16,22,03,11.90
2014,10,16,22,04,11.90
2014,10,16,22,05,11.90
2014,10,16,22,06,11.90
2014,10,16,22,07,11.90
2014,10,16,22,08,11.90
2014,10,16,22,09,11.90
2014,10,16,22,10,11.90
2014,10,16,22,11,11.90
2014,10,16,22,12,12.00
2014,10,16,22,13,12.00
2014,10,16,22,14,12.00
2014,10,16,22,15,12.00
2014,10,16,22,16,12.00
2014,10,16,22,17,12.00
2014,10,16,22,18,12.00
2014,10,16,22,19,12.00
2014,10,16,22,20,12.00
2014,10,16,22,21,12.00
2014,10,16,22,22,12.00
2014,10,16,22,23,12.00
2014,10,16,22,24,12.00
2014,10,16,22,25,11.90
2014,10,16,22,26,11.90
2014,10,16,22,27,11.90
2014,10,16,22,28,11.90
2014,10,16,22,29,11.90
2014,10,16,22,30,11.90
2014,10,16,22,31,11.80
2014,10,16,22,32,11.80
2014,10,16,22,33,11.70
2014,10,16,22,34,11.70
2014,10,16,22,35,11.70
2014,10,16,22,36,11.60
2014,10,16,22,37,11.60
2014,10,16,22,38,11.60
2014,10,16,22,39,11.50
2014,10,16,22,40,11.50
2014,10,16,22,41,11.50
2014,10,16,22,42,11.50
2014,10,16,22,43,11.40
2014,10,16,22,44,11.40
2014,10,16,22,45,11.40
2014,10,16,22,46,11.40
2014,10,16,22,47,11.40
2014,10,16,22,48,11.40
2014,10,16,22,49,11.40
2014,10,16,22,50,11.40
2014,10,16,22,51,11.40
2014,10,16,22,52,11.30
2014,10,16,22,53,11.30
2014,10,16,22,54,11.30
2014,10,16,22,55,11.30
2014,10,16,22,56,11.30
2014,10,16,22,57,11.30
2014,10,16,22,58,11.30
2014,10,16,22,59,11.30
2014,10,16,23,00,11.30
2014,10,16,23,01,11.40
2014,10,16,23,02,11.40
2014,10,16,23,03,11.40
2014,10,16,23,04,11.50
2014,10,16,23,05,11.50
2014,10,16,23,06,11.60
2014,10,16,23,07,11.60
2014,10,16,23,08,11.60
2014,10,16,23,09,11.60
2014,10,16,23,10,11.70
2014,10,16,23,11,11.70
2014,10,16,23,12,11.70
2014,10,16,23,13,11.70
2014,10,16,23,14,11.80
2014,10,16,23,15,11.80
2014,10,16,23,16,11.80
2014,10,16,23,17,11.80
2014,10,16,23,18,11.80
2014,10,16,23,19,11.80
2014,10,16,23,20,11.80
2014,10,16,23,21,11.80
2014,10,16,23,22,11.80
2014,10,16,23,23,11.80
2014,10,16,23,24,11.90
2014,10,16,23,25,11.90
2014,10,16,23,26,11.90
2014,10,16,23,27,11.90
2014,10,16,23,28,11.90
2014,10,16,23,29,11.90
2014,10,16,23,30,11.90
2014,10,16,23,31,11.90
2014,10,16,23,32,11.90
2014,10,16,23,33,11.90
2014,10,16,23,34,11.90
2014,10,16,23,35,12.00
2014,10,16,23,36,12.00
2014,10,16,23,37,12.00
2014,10,16,23,38,12.00
2014,10,16,23,39,12.00
2014,10,16,23,40,12.00
2014,10,16,23,41,12.00
2014,10,16,23,42,12.00
2014,10,16,23,43,12.00
2014,10,16,23,44,12.00
2014,10,16,23,45,12.00
2014,10,16,23,46,12.00
2014,10,16,23,47,12.00
2014,10,16,23,48,12.00
2014,10,16,23,49,12.00
2014,10,16,23,50,12.00
2014,10,16,23,51,12.00
2014,10,16,23,52,12.00
2014,10,16,23,53,12.00
2014,10,16,23,54,12.00
2014,10,16,23,55,12.00
2014,10,16,23,56,12.00
2014,10,16,23,57,12.00
2014,10,16,23,58,12.00
2014,10,16,23,59,12.00
